Other Surface Observations
Issued by NWS Upton, NY

Home | Current Version | Previous Version | Text Only | Print | Product List | Glossary On
Versions: 1 2 3 4 5 6 7 8 9 10 11 12 13 14 15 16 17 18 19 20 21 22 23 24 25 26 27 28 29 30 31 32 33 34 35 36 37 38 39 40 41 42 43 44 45 46 47 48 49 50
000
SXUS51 KOKX 191557
OSOOKX
New York City Metropolitan Area Weather Roundup
National Weather Service New York NY
1100 AM EST FRI JAN 19 2018

CITY           SKY/WX    TMP DP  RH WIND       PRES   REMARKS
Central Park   FAIR      32  14  47 W8        30.09F WCI  25
LaGuardia Arpt CLOUDY    33  12  41 W13       30.07F WCI  24
Kennedy Intl   PTSUNNY   34  16  47 W10       30.09F WCI  26
Newark Liberty CLOUDY    33  14  45 SW9       30.08F WCI  25
Teterboro Arpt FAIR      32  15  49 W9        30.07S WCI  24
Bronx Bot Gard   N/A     32  14  47 SW16      30.09S WCI  21
Bronx Lehman C   N/A     32  14  47 W8          N/A  WCI  25
Queens College   N/A     32  16  51 W10         N/A  WCI  24
Breezy Point     N/A     32 N/A N/A W9G16       N/A  WCI  24
Brooklyn Coll    N/A     34  14  44 W10         N/A  WCI  26
Staten Island    N/A     32  16  51 W10         N/A  WCI  24

>>>>>>>>>>>>>>>>>>>>>>>>>>>>>>>>> KEY <<<<<<<<<<<<<<<<<<<<<<<<<<<<<<<
> SKY/WX - Sky Condition/Present    : R : WCI - Wind Chill Index    <
>          Weather                  : E : VSB - Visibility in Miles <
> TMP    - Temperature in Deg F     : M : HX  - Heat Index          <
> DP     - Dew Point Temperature    : A : TC  - Temperature in      <
> RH     - Relative Humidity        : R :       Celsius             <
> WIND   - Direction/Speed (mph)    : K : VRB - Variable Wind Dir   <
> PRES   - Pressure (in Hg)         : S :                           <
>>>>>>>>>>>>>>>>>>>>>>>>>>>>>>>>> KEY <<<<<<<<<<<<<<<<<<<<<<<<<<<<<<<



USA.gov is the U.S. government's official web portal to all federal, state and local government web resources and services.